Regional Weather Roundup
Issued by NWS

Home | Current Version | Previous Version | Text Only | Print | Product List | Glossary On
Versions: 1 2 3 4 5 6 7 8 9 10 11 12 13 14 15 16 17 18 19 20 21 22 23 24 25 26 27 28 29 30 31 32 33 34 35 36 37 38 39 40 41 42 43 44 45 46 47 48 49 50
020
ASUS44 KLIX 191410
RWRLA
LOUISIANA WEATHER ROUNDUP
NATIONAL WEATHER SERVICE NEW ORLEANS LA
800 AM CST FRI DEC 19 2014

NOTE: "FAIR" INDICATES FEW OR NO CLOUDS BELOW 12,000 FEET WITH NO
      SIGNIFICANT WEATHER AND/OR OBSTRUCTIONS TO VISIBILITY.
      SKY/WX - SKY CONDITION AND SIGNIFICANT WEATHER.
      TMP - AIR TEMPERATURE.    DP   - DEWPOINT TEMPERATURE.
      RH  - RELATIVE HUMIDITY.  PRES - PRESSURE.
      HX  - HEAT INDEX.         WCI  - WIND CHILL INDEX.

*  THESE STATIONS ARE NOT NWS OR FAA STATIONS AND ARE NOT UNDER
   NWS QUALITY CONTROL.

LAZ040-048-061>063-065-066-069-191500-
SOUTHEAST LOUISIANA

CITY           SKY/WX    TMP DP  RH WIND       PRES   REMARKS
N.O. AUDUBON   NOT AVBL
N.O. INTL ARPT CLOUDY    56  52  86 NE16      30.15R
N.O. LAKEFRONT LGT RAIN  57  52  83 NE14      30.16R
N.O. DOWNTOWN* CLOUDY    57  48  72 NE7       30.15R
SLIDELL        CLOUDY    53  51  93 NE7       30.15R
BATON ROUGE    CLOUDY    54  52  93 E9        30.13F FOG
BOOTHVILLE     CLOUDY    61  57  87 NE9       30.11R
BELLE CHASSE   CLOUDY    56  54  93 NE10      30.14R
BOGALUSA*      RAIN      51  47  88 NE6       30.21R
GALLIANO*      CLOUDY    61  58  90 MISG      30.11R
NEW ROADS*     CLOUDY    54  53  97 E9        30.12F
GONZALES*      CLOUDY    54  54 100 NE5       30.14F
HAMMOND*       NOT AVBL
HOUMA*         CLOUDY    57  55  94 N12       30.11R
PORT FOURCHON* CLOUDY    63  59  88 NE15      30.12S

$$

LAZ041-044-053-054-191500-
SOUTHWEST LOUISIANA

CITY           SKY/WX    TMP DP  RH WIND       PRES   REMARKS
LAKE CHARLES   LGT RAIN  57  55  93 MISG      30.07R
LAFAYETTE      CLOUDY    56  32  40 CALM      30.08F
PATTERSON      CLOUDY    55  54  94 NE14      30.12S
SALT POINT       N/A     61  56  83 NE9       30.08F
NEW IBERIA     CLOUDY    58  54  86 E9        30.09F
CHENAULT AIRPK LGT RAIN  55  54  94 NE7       30.08R FOG

$$

LAZ027-028-191500-
CENTRAL LOUISIANA

CITY           SKY/WX    TMP DP  RH WIND       PRES   REMARKS
FORT POLK      LGT RAIN  52  51  97 NE6       30.10R FOG
ALEXANDRIA INT RAIN      52  51  97 NE7       30.12R FOG
ALEXANDRIA     RAIN      52  50  93 NE6       30.14R

$$

LAZ001-002-191500-
NORTHWEST LOUISIANA

CITY           SKY/WX    TMP DP  RH WIND       PRES   REMARKS
SHREVEPORT     TSTM      47  46  97 NE12      30.15F
BARKSDALE AFB  NOT AVBL
DTN SHREVEPORT TSTM      47  44  90 N6        30.18R FOG

$$

LAZ014-016-191500-
NORTHEAST LOUISIANA

CITY           SKY/WX    TMP DP  RH WIND       PRES   REMARKS
MONROE         LGT RAIN  47  45  93 NE7       30.19R
TALLULAH       CLOUDY    50  42  74 E7        30.17S

$$




USA.gov is the U.S. government's official web portal to all federal, state and local government web resources and services.